| time (UTC) | temp F | wind direction | speed knots | gust knots | rain 1hr in | rain 24hr in | rain mn in | humidity % | barometer mb |
| 20260506022726 | 41 | 299 | 13.0 | 14.8 | 0.00 | 0.00 | 0.00 | 74 | 1011.4 |
| 20260506020725 | 41 | 297 | 12.2 | 13.0 | 0.00 | 0.00 | 0.00 | 75 | 1011.2 |
| 20260506014726 | 41 | 294 | 13.0 | 13.9 | 0.00 | 0.00 | 0.00 | 74 | 1011.2 |
| 20260506012725 | 40 | 289 | 13.9 | 15.6 | 0.00 | 0.00 | 0.00 | 77 | 1011.0 |
| 20260506010726 | 40 | 288 | 14.8 | 17.4 | 0.00 | 0.00 | 0.00 | 73 | 1010.7 |
| 20260506004725 | 40 | 286 | 14.8 | 16.5 | 0.00 | 0.00 | 0.00 | 71 | 1010.5 |
| 20260506002726 | 41 | 276 | 12.2 | 13.9 | 0.00 | 0.00 | 0.00 | 71 | 1010.4 |
| 20260506000726 | 41 | 274 | 11.3 | 13.9 | 0.00 | 0.00 | 0.00 | 75 | 1010.3 |
| 20260505234725 | 41 | 266 | 13.9 | 15.6 | 0.00 | 0.00 | 0.00 | 72 | 1010.2 |
| 20260505232726 | 41 | 258 | 13.9 | 15.6 | 0.00 | 0.00 | 0.00 | 73 | 1010.0 |
| 20260505230726 | 41 | 234 | 10.4 | 13.0 | 0.00 | 0.00 | 0.00 | 80 | 1010.0 |
| 20260505224725 | 41 | 229 | 9.6 | 10.4 | 0.00 | 0.00 | 0.00 | 82 | 1010.1 |
| 20260505222725 | 41 | 217 | 7.8 | 8.7 | 0.00 | 0.00 | 0.00 | 76 | 1010.0 |
| 20260505220725 | 41 | 213 | 6.1 | 7.0 | 0.00 | 0.00 | 0.00 | 71 | 1010.0 |
| 20260505214726 | 41 | 213 | 7.0 | 7.8 | 0.00 | 0.00 | 0.00 | 76 | 1009.9 |
| 20260505212725 | 41 | 226 | 7.0 | 7.8 | 0.00 | 0.00 | 0.00 | 75 | 1009.9 |
| 20260505210724 | 41 | 232 | 6.1 | 7.8 | 0.00 | 0.00 | 0.00 | 77 | 1009.8 |
| 20260505204725 | 41 | 219 | 9.6 | 10.4 | 0.00 | 0.00 | 0.00 | 76 | 1009.5 |
| 20260505202726 | 41 | 212 | 9.6 | 9.6 | 0.00 | 0.00 | 0.00 | 74 | 1009.3 |
| 20260505200724 | 41 | 210 | 10.4 | 11.3 | 0.00 | 0.00 | 0.00 | 71 | 1009.3 |
| 20260505194724 | 41 | 202 | 10.4 | 11.3 | 0.00 | 0.00 | 0.00 | 67 | 1009.1 |
| 20260505192725 | 40 | 200 | 10.4 | 13.0 | 0.00 | 0.00 | 0.00 | 69 | 1009.1 |
| 20260505190724 | 41 | 249 | 11.3 | 14.8 | 0.00 | 0.00 | 0.00 | 66 | 1009.5 |
| 20260505184724 | 41 | 291 | 23.5 | 28.7 | 0.00 | 0.00 | 0.00 | 70 | 1008.9 |
| 20260505182724 | 41 | 262 | 8.7 | 10.4 | 0.00 | 0.00 | 0.00 | 81 | 1009.0 |
| 20260505180724 | 41 | 231 | 8.7 | 9.6 | 0.00 | 0.00 | 0.00 | 81 | 1008.6 |
| 20260505174724 | 41 | 219 | 9.6 | 11.3 | 0.00 | 0.00 | 0.00 | 77 | 1008.5 |
| 20260505172723 | 41 | 211 | 12.2 | 13.9 | 0.00 | 0.00 | 0.00 | 75 | 1008.2 |
| 20260505170723 | 41 | 211 | 11.3 | 12.2 | 0.00 | 0.00 | 0.00 | 72 | 1008.2 |
| 20260505164724 | 42 | 210 | 11.3 | 13.0 | 0.00 | 0.00 | 0.00 | 74 | 1008.3 |
| 20260505162724 | 41 | 205 | 12.2 | 13.0 | 0.00 | 0.00 | 0.00 | 73 | 1008.2 |
| 20260505160723 | 41 | 204 | 10.4 | 11.3 | 0.00 | 0.00 | 0.00 | 72 | 1008.2 |
| 20260505152723 | 42 | 200 | 7.0 | 7.8 | 0.00 | 0.00 | 0.00 | 68 | 1008.2 |
| 20260505150723 | 42 | 188 | 3.5 | 4.3 | 0.00 | 0.00 | 0.00 | 62 | 1008.3 |
| 20260505124722 | 41 | 357 | 9.6 | 10.4 | 0.00 | 0.00 | 0.00 | 67 | 1007.4 |
| 20260505122723 | 41 | 348 | 10.4 | 13.0 | 0.00 | 0.00 | 0.00 | 70 | 1007.2 |
| 20260505120723 | 40 | 341 | 13.0 | 14.8 | 0.00 | 0.00 | 0.00 | 73 | 1007.0 |
| 20260505114723 | 41 | 336 | 12.2 | 13.9 | 0.00 | 0.00 | 0.00 | 70 | 1006.9 |
| 20260505112723 | 41 | 338 | 13.9 | 16.5 | 0.00 | 0.00 | 0.00 | 68 | 1006.8 |
| 20260505110722 | 41 | 330 | 15.6 | 17.4 | 0.00 | 0.00 | 0.00 | 69 | 1006.6 |
| 20260505100722 | 40 | 328 | 14.8 | 15.6 | 0.00 | 0.00 | 0.00 | 73 | 1006.3 |
| 20260505094722 | 40 | 323 | 14.8 | 17.4 | 0.00 | 0.00 | 0.00 | 71 | 1006.1 |
| 20260505092722 | 40 | 317 | 14.8 | 17.4 | 0.00 | 0.00 | 0.00 | 69 | 1005.9 |
| 20260505090722 | 40 | 314 | 15.6 | 18.2 | 0.00 | 0.00 | 0.00 | 72 | 1005.7 |
| 20260505084723 | 40 | 314 | 18.2 | 20.9 | 0.00 | 0.00 | 0.00 | 70 | 1005.3 |
| 20260505082722 | 40 | 313 | 18.2 | 20.0 | 0.00 | 0.00 | 0.00 | 70 | 1005.1 |
| 20260505080722 | 40 | 304 | 16.5 | 20.0 | 0.00 | 0.00 | 0.00 | 70 | 1005.0 |
| 20260505074721 | 40 | 301 | 13.9 | 15.6 | 0.00 | 0.00 | 0.00 | 75 | 1005.0 |
| 20260505072722 | 40 | 292 | 13.9 | 16.5 | 0.00 | 0.00 | 0.00 | 75 | 1004.8 |
| 20260505070721 | 40 | 286 | 15.6 | 17.4 | 0.00 | 0.00 | 0.00 | 80 | 1004.6 |
| 20260505064721 | 40 | 286 | 13.9 | 15.6 | 0.00 | 0.00 | 0.00 | 84 | 1004.6 |
| 20260505062721 | 40 | 295 | 12.2 | 13.0 | 0.00 | 0.00 | 0.00 | 85 | 1004.3 |
| 20260505060722 | 39 | 299 | 12.2 | 13.9 | 0.00 | 0.00 | 0.00 | 85 | 1004.3 |
| 20260505054721 | 38 | 294 | 13.9 | 16.5 | 0.00 | 0.00 | 0.00 | 85 | 1004.2 |
| 20260505052722 | 38 | 293 | 14.8 | 17.4 | 0.00 | 0.00 | 0.00 | 89 | 1004.0 |
| 20260505050721 | 38 | 296 | 13.9 | 16.5 | 0.00 | 0.00 | 0.00 | 87 | 1003.8 |
| 20260505040721 | 38 | 311 | 12.2 | 14.8 | 0.00 | 0.00 | 0.00 | 90 | 1003.3 |
| 20260505034722 | 38 | 317 | 13.0 | 14.8 | 0.00 | 0.00 | 0.00 | 92 | 1003.0 |
| 20260505032721 | 38 | 335 | 14.8 | 16.5 | 0.00 | 0.00 | 0.00 | 91 | 1002.8 |
| 20260505030721 | 38 | 349 | 19.1 | 21.7 | 0.00 | 0.00 | 0.00 | 91 | 1002.4 |
| 20260505024721 | 38 | 356 | 22.6 | 26.1 | 0.00 | 0.00 | 0.00 | 89 | 1001.9 |